Weather observations for the past three days for
Redwood Falls Municipal Airport
Imperial (Metric)
Date Time (cdt) Wind (mph) Vis. (mi.) Weather Sky Cond. Temperature (ºF) Relative Humidity Wind Chill (°F) Heat Index (°F) Pressure Precipitation (in)
Air Dwpt 6 hour altimeter (in) sea level (mb) 1 hr 3 hr 6 hr
Max. Min.
12 21:53 S 7 10.00 Fair CLR 78.1 66 67% 80 29.69 1004.7
12 20:53 S 9 10.00 Fair CLR 81 64.9 58% 83 29.67 1004.0
12 19:53 S 12 10.00 Fair CLR 84 64 51% 85 29.66 1003.5
12 18:53 S 16 G 28 10.00 Fair CLR 86 63 89.1 75 46% 87 29.64 1003.1
12 17:53 SW 15 G 24 10.00 Fair CLR 86 61 43% 86 29.67 1004.2
12 16:53 SW 12 G 26 10.00 Fair CLR 88 63 43% 89 29.68 1004.3
12 15:53 SW 21 G 30 10.00 Fair and Breezy CLR 87.1 62.1 43% 88 29.68 1004.3
12 14:53 SE 17 10.00 Fair CLR 82 71.1 69% 86 29.69 1005.0
12 13:53 SE 18 G 29 10.00 Fair CLR 78.1 69.1 74% 80 29.71 1005.6
12 12:53 SE 26 G 37 10.00 Fair and Windy CLR 75.9 66.9 75.9 63 74% 77 29.7 1005.3 0.99
12 11:53 E 8 10.00 Partly Cloudy FEW070 SCT085 68 66 93% 29.74 1006.7 0.24
12 10:53 W 13 1.25 Thunderstorm Light Rain Fog/Mist FEW018 SCT085 BKN100 64.9 63 93% 29.81 1008.9 0.53
12 09:53 N 8 7.00 Thunderstorm Light Rain FEW032 BKN080 OVC110 63 61 93% 29.78 1008.0 0.22 0.22
12 08:53 NW 17 G 40 10.00 Thunderstorm in Vicinity Light Rain FEW050 FEW075 BKN110 71.1 55.9 59% 29.78 1007.8
12 06:53 S 9 10.00 Partly Cloudy SCT110 70 52 70 60.1 53% 29.76 1007.1
12 05:53 S 10 10.00 Fair CLR 64 50 60% 29.77 1007.5
12 04:53 SE 8 10.00 Fair CLR 62.1 51.1 67% 29.79 1008.1
12 03:53 E 3 10.00 A Few Clouds FEW110 61 52 72% 29.8 1008.7
12 02:53 S 6 10.00 A Few Clouds FEW120 63 50 63% 29.83 1009.5
12 01:53 S 5 10.00 Fair CLR 63 50 63% 29.83 1009.4
12 00:53 S 5 10.00 Fair CLR 64 50 82.9 64 60% 29.83 1009.7
11 23:53 Calm 10.00 Fair CLR 66.9 50 55% 29.83 1009.5
11 22:53 W 3 10.00 Fair CLR 73 48 41% 29.83 1009.5
11 21:53 W 5 10.00 Fair CLR 73 48 41% 29.82 1009.2
11 20:53 W 8 10.00 Fair CLR 75.9 48 37% 78 29.8 1008.6
11 19:53 W 12 G 23 10.00 A Few Clouds FEW095 81 46 29% 80 29.79 1008.3
11 18:53 W 13 G 22 10.00 Partly Cloudy SCT095 82.9 48.9 84 81 31% 81 29.79 1008.2
11 17:53 W 16 G 23 10.00 Mostly Cloudy BKN090 82 48.9 32% 81 29.79 1008.2
11 16:53 NW 10 G 23 10.00 Fair CLR 82.9 48.9 31% 81 29.8 1008.5
11 15:53 W 17 G 26 10.00 A Few Clouds FEW085 84 48 29% 82 29.8 1008.7
11 14:53 NW 13 G 24 10.00 Fair CLR 82.9 51.1 33% 81 29.81 1008.8
11 13:53 W 15 G 20 10.00 A Few Clouds FEW070 81 55 41% 81 29.81 1008.9
11 12:53 NW 14 G 24 10.00 A Few Clouds FEW060 81 55.9 82 62.1 42% 81 29.8 1008.6
11 11:53 W 12 G 20 10.00 Partly Cloudy SCT050 80.1 57 45% 80 29.81 1008.7
11 10:53 NW 10 G 24 10.00 Fair CLR 77 57.9 52% 79 29.81 1008.8
11 09:53 NW 14 G 22 10.00 Fair CLR 75 57.9 55% 78 29.8 1008.7
11 08:53 SW 10 6.00 Fair with Haze CLR 72 57 59% 29.8 1008.6
11 07:53 S 10 10.00 Overcast BKN034 OVC043 66 53.1 63% 29.8 1008.7
11 06:53 S 9 10.00 Overcast BKN043 OVC090 62.1 53.1 68 61 73% 29.8 1008.7
11 05:53 SE 12 10.00 Overcast OVC080 61 52 72% 29.8 1008.9
11 04:53 SE 13 10.00 Overcast OVC065 61 52 72% 29.82 1009.6
11 03:53 S 8 9.00 Light Rain SCT060 BKN080 OVC090 62.1 51.1 67% 29.85 1010.5
11 02:53 S 12 10.00 Overcast BKN080 OVC090 66 43 43% 29.85 1010.5
11 01:53 SE 16 10.00 Fair CLR 66.9 41 39% 29.85 1010.3
11 00:53 SE 15 10.00 Fair CLR 68 41 75 66.9 38% 29.89 1011.7
10 23:53 SE 10 10.00 A Few Clouds FEW110 66.9 43 42% 29.91 1012.5
10 22:53 SE 9 10.00 Fair CLR 66.9 44.1 44% 29.92 1013.0
10 21:53 SE 7 10.00 Fair CLR 69.1 44.1 41% 29.93 1013.1
10 20:53 SE 7 10.00 Fair CLR 69.1 44.1 41% 29.91 1012.6
10 19:53 SE 10 10.00 Fair CLR 71.1 44.1 38% 29.91 1012.5
10 18:53 SE 10 10.00 Fair CLR 75 44.1 75.9 66.9 33% 77 29.92 1012.8
10 17:53 SE 10 10.00 Fair CLR 75 45 34% 77 29.92 1013.1
10 16:53 SE 12 10.00 Fair CLR 75 42.1 31% 77 29.96 1014.5
10 15:53 S 6 10.00 Fair CLR 73.9 45 36% 29.98 1015.2
10 14:53 SE 6 10.00 Fair CLR 72 48 43% 30.01 1016.0
10 13:53 E 7 10.00 Fair CLR 70 48 46% 30.03 1016.7
10 12:53 Calm 10.00 Fair CLR 68 46 69.1 54 45% 30.06 1017.7
10 11:53 Vrbl 3 10.00 Fair CLR 64.9 46.9 52% 30.08 1018.5
10 10:53 Vrbl 3 10.00 Mostly Cloudy BKN032 63 48.9 60% 30.1 1019.1
10 09:53 Calm 10.00 Overcast OVC032 62.1 48.9 62% 30.11 1019.3
10 08:53 Vrbl 3 10.00 Overcast OVC031 57.9 50 75% 30.12 1019.9
10 07:53 E 3 10.00 A Few Clouds FEW029 55.9 50 81% 30.13 1020.1
10 06:53 NE 5 10.00 Fair CLR 54 48.9 57.9 52 83% 30.12 1019.8
10 05:53 N 3 10.00 Fair CLR 52 48 86% 30.11 1019.5
10 04:53 NW 3 10.00 Mostly Cloudy BKN046 53.1 48.9 86% 30.1 1019.1
10 03:53 Calm 10.00 Fair CLR 54 48.9 83% 30.09 1018.7
10 02:53 Calm 10.00 Fair CLR 55 48.9 80% 30.09 1018.7
10 01:53 Vrbl 5 10.00 Fair CLR 57 50 78% 30.09 1018.5
10 00:53 N 3 10.00 Fair CLR 57 46.9 73 57 69% 30.07 1018.1
09 23:53 NW 6 10.00 Fair CLR 59 46.9 64% 30.07 1017.9
09 22:53 N 6 10.00 Fair CLR 62.1 46 56% 30.05 1017.4
Date Time (cdt) Wind (mph) Vis. (mi.) Weather Sky Cond. Air Dwpt Max. Min. Relative Humidity Wind Chill (°F) Heat Index (°F) altimeter (in) sea level (mb) 1 hr 3 hr 6 hr
6 hour
Temperature (ºF) Pressure Precipitation (in)